カタログに戻る

STARLINK-38072

運用中通信SSO
NORAD 100113·PAYLOAD·🇺🇸 United States

打ち上げ Jul 21, 2026 から Vandenberg Space Force Base

Loading…

次のパス (今後24時間)

TLE

最新Source: Space-Track

元期: Sep 14, 2026, 07:39 UTC

1 A0113U 26166N   26257.31879451  .00002042  00000-0  14558-4 0  9991
2 A0113  97.2823 275.4148 0001411  92.5741 267.5686 15.75181372  8631

AllMySatでSTARLINK-38072をリアルタイム追跡

Download on the App Store